{"data":{"norad_id":43573,"intl_designator":"2018-061E","name":"IRIDIUM 155","alt_names":[],"object_type":"PAYLOAD","status":"ACTIVE","operator":null,"country":"US","launch_date":"2018-07-25","launch_site_code":"AFWTR","launch_vehicle":null,"mission":null,"orbit_class":"UNKNOWN","rcs_meters":null,"size_class":null,"mass_kg":null,"dimensions":null,"purposes":["comms"],"wikipedia_slug":null,"has_3d_model":false,"image_url":null,"decayed_at":null,"tle_current":{"epoch":"2026-09-20T01:35:06.459072Z","epoch_age_seconds":52872,"freshness":"FRESH","line1":"1 43573U 18061E   26263.06604698  .00000038  00000+0  63935-5 0  9997","line2":"2 43573  86.4008  16.9915 0002133  92.1273 268.0167 14.34217741426954","mean_motion":14.34217741,"eccentricity":0.0002133,"inclination_deg":86.4008,"raan_deg":16.9915,"arg_perigee_deg":92.1273,"mean_anomaly_deg":268.0167,"bstar":6.3935e-6,"rev_number":42695,"period_min":100.40316465448,"perigee_km":776.14085125703,"apogee_km":779.19351732205,"semimajor_km":7155.8041842895,"source":"CELESTRAK","updated_at":"2026-09-20T09:00:36.332470Z"}}}